EW1955 Weather Reports


Display with metric or nautical units.
time (UTC)temp
F
wind
direction
speed
MPH
gust
MPH
rain 1hr
in
rain 24hr
in
rain mn
in
humidity
%
barometer
mb
20260905163107 85 300 2.0 12.0 0.00 0.00 0.00 63 1015.5
20260905163014 0 0.0 0.0 0.00 0.00 0.00 1014.3
20260905161606 84 176 3.0 7.0 0.00 0.00 0.00 63 1015.5
20260905161512 0 0.0 0.0 0.00 0.00 0.00 1014.2
20260905160101 83 189 2.0 10.0 0.00 0.00 0.00 66 1015.3
20260905160017 0 0.0 0.0 0.00 0.00 0.00 1014.1
20260905154619 82 221 1.0 9.0 0.00 0.00 0.00 66 1015.4
20260905154511 0 0.0 0.0 0.00 0.00 0.00 1014.1
20260905153104 81 233 1.0 12.0 0.00 0.00 0.00 68 1015.5
20260905153007 0 0.0 0.0 0.00 0.00 0.00 1014.4
20260905151605 80 0 2.0 9.0 0.00 0.00 0.00 71 1015.8
20260905151512 0 0.0 0.0 0.00 0.00 0.00 1014.5
20260905150104 80 228 3.0 9.0 0.00 0.00 0.00 69 1015.7
20260905150009 0 0.0 0.0 0.00 0.00 0.00 1014.5
20260905144603 79 251 2.0 10.0 0.00 0.00 0.00 70 1015.8
20260905144521 0 0.0 0.0 0.00 0.00 0.00 1014.7
20260905143105 78 237 5.0 10.0 0.00 0.00 0.00 71 1016.0
20260905143012 0 0.0 0.0 0.00 0.00 0.00 1014.7
20260905141603 77 165 2.0 9.0 0.00 0.00 0.00 73 1015.9
20260905141511 0 0.0 0.0 0.00 0.00 0.00 1014.8
20260905140106 76 201 2.0 10.0 0.00 0.00 0.00 75 1016.0
20260905140011 0 0.0 0.0 0.00 0.00 0.00 1014.9
20260905134601 75 201 2.0 9.0 0.00 0.00 0.00 79 1016.0
20260905134506 0 0.0 0.0 0.00 0.00 0.00 1014.8
20260905133056 73 0 0.0 5.0 0.00 0.00 0.00 82 1015.9
20260905133006 0 0.0 0.0 0.00 0.00 0.00 1014.7
20260905131609 73 232 3.0 8.0 0.00 0.00 0.00 82 1016.1
20260905131504 0 0.0 0.0 0.00 0.00 0.00 1014.9
20260905130004 0 0.0 0.0 0.00 0.00 0.00 1015.1
20260905124611 72 0 0.0 3.0 0.00 0.00 0.00 85 1016.3
20260905124520 0 0.0 0.0 0.00 0.00 0.00 1015.1
20260905123108 72 0 0.0 4.0 0.00 0.00 0.00 85 1016.2
20260905123005 0 0.0 0.0 0.00 0.00 0.00 1015.0
20260905121605 72 229 0.0 3.0 0.00 0.00 0.00 86 1016.4
20260905121501 0 0.0 0.0 0.00 0.00 0.00 1015.0
20260905120105 71 345 0.0 4.0 0.00 0.00 0.00 86 1016.3
20260905120100 0 0.0 0.0 0.00 0.00 0.00 1015.2
20260905114602 72 227 1.0 7.0 0.00 0.00 0.00 87 1016.0
20260905113108 72 0 1.0 4.0 0.00 0.00 0.00 91 1015.5
20260905113047 0 0.0 0.0 0.00 0.00 0.00 1014.3
20260905111610 74 164 2.0 9.0 0.00 0.00 0.00 93 1015.5
20260905111545 0 0.0 0.0 0.00 0.00 0.00 1014.2
20260905110041 0 0.0 0.0 0.00 0.00 0.00 1013.1
20260905104614 74 0 0.0 0.0 0.00 0.00 0.00 93 1014.2
20260905103105 74 0 0.0 0.0 0.00 0.00 0.00 93 1014.3
20260905103032 0 0.0 0.0 0.00 0.00 0.00 1013.0
20260905101603 74 0 0.0 0.0 0.00 0.00 0.00 93 1014.3
20260905101524 0 0.0 0.0 0.00 0.00 0.00 1013.0
20260905100111 75 0 0.0 0.0 0.00 0.00 0.00 93 1014.2
20260905100022 0 0.0 0.0 0.00 0.00 0.00 1013.0
20260905094604 75 0 0.0 2.0 0.00 0.00 0.00 93 1014.2
20260905093105 75 0 0.0 2.0 0.00 0.00 0.00 92 1014.1
20260905093016 0 0.0 0.0 0.00 0.00 0.00 1012.9
20260905091637 75 0 0.0 0.0 0.00 0.00 0.00 92 1014.3
20260905091510 0 0.0 0.0 0.00 0.00 0.00 1013.1
20260905090105 75 0 0.0 0.0 0.00 0.00 0.00 92 1014.3
20260905090006 0 0.0 0.0 0.00 0.00 0.00 1013.1
20260905084613 75 0 0.0 0.0 0.00 0.00 0.00 92 1014.1
20260905083103 76 0 0.0 0.0 0.00 0.00 0.00 92 1013.7
20260905083059 0 0.0 0.0 0.00 0.00 0.00 1012.5
20260905081605 76 0 0.0 0.0 0.00 0.00 0.00 92 1013.6
20260905081601 0 0.0 0.0 0.00 0.00 0.00 1012.4
20260905080109 76 0 0.0 0.0 0.00 0.00 0.00 93 1013.5
20260905080056 0 0.0 0.0 0.00 0.00 0.00 1012.3
20260905074631 76 0 0.0 1.0 0.00 0.00 0.00 93 1013.5
20260905073111 76 215 0.0 1.0 0.00 0.00 0.00 93 1013.3
20260905073046 0 0.0 0.0 0.00 0.00 0.00 1012.1
20260905071613 76 0 0.0 0.0 0.00 0.00 0.00 92 1013.5
20260905071541 0 0.0 0.0 0.00 0.00 0.00 1012.2
20260905070114 76 0 0.0 0.0 0.00 0.00 0.00 92 1013.7
20260905070037 0 0.0 0.0 0.00 0.00 0.00 1012.5
20260905063102 76 0 0.0 0.0 0.00 0.00 0.00 92 1014.2
20260905063035 0 0.0 0.0 0.00 0.00 0.00 1012.9
20260905061616 76 0 0.0 0.0 0.00 0.00 0.00 92 1014.3
20260905061531 0 0.0 0.0 0.00 0.00 0.00 1013.1
20260905060057 76 0 0.0 0.0 0.00 0.00 0.00 92 1014.4
20260905060038 0 0.0 0.0 0.00 0.00 0.00 1013.3
20260905054607 76 0 0.0 0.0 0.00 0.00 0.00 92 1014.5
20260905053104 76 0 0.0 0.0 0.00 0.00 0.00 92 1014.7
20260905053018 0 0.0 0.0 0.00 0.00 0.00 1013.5
20260905051601 77 0 0.0 0.0 0.00 0.00 0.00 91 1014.8
20260905051524 0 0.0 0.0 0.00 0.00 0.00 1013.5
20260905050104 77 0 0.0 0.0 0.00 0.00 0.00 91 1014.8
20260905050009 0 0.0 0.0 0.00 0.00 0.00 1013.6
20260905044607 77 0 0.0 0.0 0.00 0.00 0.00 91 1014.8
20260905043103 77 0 0.0 0.0 0.00 0.00 0.00 91 1014.9
20260905041607 77 0 0.0 0.0 0.00 0.00 0.00 91 1015.1
20260905041557 0 0.0 0.0 0.00 0.00 0.00 1013.8
20260905040100 77 0 0.0 0.0 0.00 0.00 0.00 91 1015.1
20260905040054 0 0.0 0.0 0.00 0.00 0.00 1013.8
20260905034606 78 0 0.0 0.0 0.00 0.00 0.00 91 1015.0
20260905033103 78 0 0.0 0.0 0.00 0.00 0.00 90 1015.1
20260905033044 0 0.0 0.0 0.00 0.00 0.00 1013.9
20260905031601 78 0 0.0 0.0 0.00 0.00 0.00 90 1015.2
20260905031547 0 0.0 0.0 0.00 0.00 0.00 1014.0
20260905030108 78 0 0.0 0.0 0.00 0.00 0.00 89 1015.0
20260905030035 0 0.0 0.0 0.00 0.00 0.00 1013.8
20260905024605 79 0 0.0 0.0 0.00 0.00 0.00 89 1014.8
20260905023105 79 0 0.0 0.0 0.00 0.00 0.00 88 1014.8
20260905023031 0 0.0 0.0 0.00 0.00 0.00 1013.5
20260905021605 79 0 0.0 0.0 0.00 0.00 0.00 88 1015.0
20260905021523 0 0.0 0.0 0.00 0.00 0.00 1013.7
20260905020019 0 0.0 0.0 0.00 0.00 0.00 1013.6
20260905014606 80 0 0.0 0.0 0.00 0.00 0.00 88 1014.5
20260905013104 80 0 0.0 0.0 0.00 0.00 0.00 87 1014.5
20260905013015 0 0.0 0.0 0.00 0.00 0.00 1013.4
20260905011609 80 0 0.0 0.0 0.00 0.00 0.00 86 1014.5
20260905011515 0 0.0 0.0 0.00 0.00 0.00 1013.3
20260905010111 81 0 0.0 0.0 0.00 0.00 0.00 85 1014.4
20260905010006 0 0.0 0.0 0.00 0.00 0.00 1013.2
20260905004608 81 0 0.0 0.0 0.00 0.00 0.00 84 1014.3
20260905003106 82 0 0.0 0.0 0.00 0.00 0.00 83 1014.2
20260905003004 0 0.0 0.0 0.00 0.00 0.00 1013.0
20260905001602 82 0 0.0 0.0 0.00 0.00 0.00 83 1014.4
20260905001600 0 0.0 0.0 0.00 0.00 0.00 1013.2
20260905000104 0 0.0 0.0 0.00 0.00 0.00 1013.1
20260905000100 83 0 0.0 0.0 0.00 0.00 0.00 82 1014.3
20260904234651 0 0.0 0.0 0.00 0.00 0.00 1013.1
20260904234606 85 0 0.0 0.0 0.00 0.00 0.00 79 1014.3
20260904233104 88 0 0.0 0.0 0.00 0.00 0.00 72 1014.3
20260904233043 0 0.0 0.0 0.00 0.00 0.00 1013.1
20260904231603 91 0 0.0 0.0 0.00 0.00 0.00 64 1014.2
20260904231547 0 0.0 0.0 0.00 0.00 0.00 1013.0
20260904230110 91 0 0.0 1.0 0.00 0.00 0.00 63 1014.1
20260904230050 0 0.0 0.0 0.00 0.00 0.00 1013.0
20260904224632 0 0.0 0.0 0.00 0.00 0.00 1013.0
20260904224612 92 208 0.0 1.0 0.00 0.00 0.00 61 1014.1
20260904223057 92 0 0.0 2.0 0.00 0.00 0.00 62 1014.1
20260904223027 0 0.0 0.0 0.00 0.00 0.00 1013.0
20260904221604 93 0 0.0 2.0 0.00 0.00 0.00 61 1014.1
20260904221521 0 0.0 0.0 0.00 0.00 0.00 1012.9
20260904220107 93 0 0.0 5.0 0.00 0.00 0.00 59 1014.1
20260904220017 0 0.0 0.0 0.00 0.00 0.00 1012.9
20260904214614 0 0.0 0.0 0.00 0.00 0.00 1012.9
20260904214608 93 0 0.0 3.0 0.00 0.00 0.00 58 1014.1
20260904213110 93 190 0.0 6.0 0.00 0.00 0.00 60 1014.2
20260904213010 0 0.0 0.0 0.00 0.00 0.00 1013.0
20260904211613 93 0 2.0 7.0 0.00 0.00 0.00 58 1014.3
20260904211510 0 0.0 0.0 0.00 0.00 0.00 1013.1
20260904210110 94 195 2.0 6.0 0.00 0.00 0.00 57 1014.5
20260904210009 0 0.0 0.0 0.00 0.00 0.00 1013.3
20260904204601 94 0 0.0 4.0 0.00 0.00 0.00 59 1014.7
20260904204557 0 0.0 0.0 0.00 0.00 0.00 1013.5
20260904203057 94 341 1.0 5.0 0.00 0.00 0.00 57 1014.8
20260904203055 0 0.0 0.0 0.00 0.00 0.00 1013.6
20260904201614 94 235 0.0 5.0 0.00 0.00 0.00 59 1015.1
20260904201556 0 0.0 0.0 0.00 0.00 0.00 1013.9
20260904200106 94 214 0.0 6.0 0.00 0.00 0.00 57 1015.3
20260904200055 0 0.0 0.0 0.00 0.00 0.00 1014.0
20260904194603 94 0 0.0 6.0 0.00 0.00 0.00 54 1015.3
20260904194548 0 0.0 0.0 0.00 0.00 0.00 1014.2
20260904193109 94 0 0.0 3.0 0.00 0.00 0.00 56 1015.6
20260904193042 0 0.0 0.0 0.00 0.00 0.00 1014.3
20260904191621 94 352 1.0 6.0 0.00 0.00 0.00 56 1015.8
20260904191538 0 0.0 0.0 0.00 0.00 0.00 1014.6
20260904190035 0 0.0 0.0 0.00 0.00 0.00 1014.7
20260904184609 94 172 0.0 2.0 0.00 0.00 0.00 60 1016.2
20260904184547 0 0.0 0.0 0.00 0.00 0.00 1015.1
20260904183106 94 299 0.0 8.0 0.00 0.00 0.00 61 1016.5
20260904183039 0 0.0 0.0 0.00 0.00 0.00 1015.2
20260904181603 94 0 0.0 6.0 0.00 0.00 0.00 60 1016.6
20260904181529 0 0.0 0.0 0.00 0.00 0.00 1015.3
20260904180058 94 212 1.0 6.0 0.00 0.00 0.00 59 1016.6
20260904180026 0 0.0 0.0 0.00 0.00 0.00 1015.3
20260904174605 93 257 1.0 7.0 0.00 0.00 0.00 62 1016.8
20260904174537 0 0.0 0.0 0.00 0.00 0.00 1015.5
20260904173104 93 242 0.0 8.0 0.00 0.00 0.00 60 1016.8
20260904173014 0 0.0 0.0 0.00 0.00 0.00 1015.7
20260904171603 93 160 2.0 8.0 0.00 0.00 0.00 59 1017.2
20260904171512 0 0.0 0.0 0.00 0.00 0.00 1015.9
20260904170057 93 0 0.0 6.0 0.00 0.00 0.00 63 1017.3
20260904170008 0 0.0 0.0 0.00 0.00 0.00 1016.0
20260904164610 92 0 0.0 4.0 0.00 0.00 0.00 64 1017.3
20260904164503 0 0.0 0.0 0.00 0.00 0.00 1016.1